STARLINK-1555, 46032

Orbit data source: Space-Track

STARLINK-1555, 46032 is a payload satellite owned by SpaceX/Seattle (US) in LEO that was launched on Fri, 07 Aug 2020 UTC via an FALCON 9 launch vehicle from the Air Force Eastern Test Range (AFETR). Payload-class satellites include a variety of spacecraft equipped with specific instruments for various scientific and technological missions. These include communications satellites like Starlink; space stations such as the ISS; scientific satellites like the Hubble; Earth observation satellites from companies like Planet Labs, Umbra, and HawkEye 360; GPS; miniature CubeSats for education and research; and military/defense satellites.

Loading next visibility...
Identifier
46032, 2020-055F
Orbit
LEO
Country
Flag of USUS
Related business
Manufacturer
SpaceX/Seattle
Mission
Operational Commercial Communications
Bus & Motor
STARLINK, Unknown motor
Mass
260 kg wet, ~248 kg dry
Launch date (UTC)
2020-08-07 (6 years ago)
Launch vehicle
FALCON 9
Launch site
Air Force Eastern Test Range (AFETR)
Object type
Payload
Rocket body
Debris
Shape & HBR
Box + 1 Pan, 10.1 m
Radar Cross Section
13.562 m², Large (>1 m²)

Expand to show TLE details & history
Last TLE update: 1 day ago

TLE from 1 day ago
0 STARLINK-1555
1 46032U 20055F   26198.12140323  .00000383  00000-0  24104-4 0  9998
2 46032  53.1603 245.1924 0001219  90.5643 269.5498 15.31698523328719
Epoch: 2026-07-17T02:54Z
TLE epoch observation values (Epoch: 2026-07-17T02:54:49.239Z)
Latitude
-0.00001°
Longitude
-93.46582°
Altitude
471.651 km
Speed
7.631 km/s
True Right ascension
16h 20m 46s
True Declination
0° 00' 00"
Sunlit
Object was in full shadow at epoch
Visualization orbit readout
Latitude
Unknown
Longitude
Unknown
Altitude
Unknown
Speed
Unknown
Apparent Right ascension
Unknown
Apparent Declination
Unknown
Sunlit
N/A
Visualization observer readout
Local Sidereal Time
15:30:34
Azimuth
Unknown
Elevation
Unknown
Doppler factor
Unknown
Orbital elements
Apogee altitude
471.836 km
Perigee altitude
470.166 km
Semi-major axis
6,849.138 km
Eccentricity
0.00012
Inclination
53.1603°
RAAN
245.1924°
Arg. of periapsis
90.5643°
True anomaly
269.53583°
Mean anomaly
269.5498°
Eccentric anomaly
269.54282°
Mean motion
3.82903 °/min
Orbital period
94.02 mins
BSTAR
0.000024104
Loading maneuver chart data...
Computing Atmospheric mass density...
Loading historical data...
Loading historical data...
Loading historical data...
Loading historical data...
Loading historical data...
Loading historical data...
Loading historical data...

Documentation

Showing up to 5 results
|